Weather History for Mobile, AL

Change the Weather History Date:

Friday, October 8, 2010

  Actual Average Record
Temperature  
Mean Temperature 68 °F 71 °F  
Max Temperature 88 °F 81 °F 94 °F (1941)
Min Temperature 48 °F 60 °F 43 °F (1991)
Degree Days  
Heating Degree Days 0 1  
Month to date heating degree days 13 4  
Since 1 July heating degree days 13 6  
Cooling Degree Days 3 7  
Month to date cooling degree days 14 60  
Year to date cooling degree days 2633 2364  
Growing Degree Days 18 (Base 50)    
Moisture  
Dew Point 50 °F    
Average Humidity 55    
Maximum Humidity 86    
Minimum Humidity 24    
Precipitation  
Precipitation 0.00 in 0.12 in 3.39 in (1894)
Month to date precipitation 0.00 1.01  
Year to date precipitation 48.48 53.28  
Sea Level Pressure  
Sea Level Pressure 30.08 in    
Wind  
Wind Speed 3 mph (West)    
Max Wind Speed 10 mph    
Max Gust Speed 17 mph    
Visibility 10 miles    
Events      
T = Trace of Precipitation, MM = Missing Value Source: NWS Daily Summary

Daily Weather History Graph

Daily Weather History Graph

Search for Another Location

Airport:

Trip Planner

Search our weather history database for the weather conditions in past years. The results will help you decide how hot, cold, wet, or windy it might be!

Date:

Astronomy

Oct. 08, 2010 Rise Set
Actual Time 6:50 AM CDT 6:29 PM CDT
Civil Twilight 6:26 AM CDT 6:53 PM CDT
Nautical Twilight 5:58 AM CDT 7:21 PM CDT
Astronomical Twilight 5:30 AM CDT 7:49 PM CDT
Moon 7:46 AM CDT (10/8) 6:55 PM CDT (10/8)
Length of Visible Light 12h 27m
Length of Day
11h 38m
New Moon, 1% of the Moon is Illuminated
Oct 8
New Moon
Oct 14
First Quarter
Oct 22
Full
Oct 30
Last Quarter
Nov 5
New

Hourly Weather History & Observations

Time (CDT) Temp. Dew Point Humidity Pressure Visibility Wind Dir Wind Speed Gust Speed Precip Events Conditions
12:56 AM 50.0 °F 46.9 °F 89% 30.10 in 10.0 mi Calm Calm - N/A   Clear
1:56 AM 53.1 °F 48.9 °F 86% 30.09 in 10.0 mi Calm Calm - N/A   Clear
2:56 AM 53.1 °F 48.9 °F 86% 30.09 in 9.0 mi WNW 3.5 mph - N/A   Clear
3:56 AM 53.1 °F 46.0 °F 77% 30.07 in 10.0 mi NW 3.5 mph - N/A   Clear
4:56 AM 53.1 °F 46.0 °F 77% 30.07 in 10.0 mi NW 3.5 mph - N/A   Clear
5:56 AM 48.9 °F 45.0 °F 86% 30.09 in 10.0 mi WNW 4.6 mph - N/A   Clear
6:56 AM 51.1 °F 46.0 °F 83% 30.10 in 10.0 mi NW 4.6 mph - N/A   Clear
7:56 AM 57.9 °F 50.0 °F 75% 30.12 in 10.0 mi WNW 3.5 mph - N/A   Clear
8:56 AM 66.9 °F 50.0 °F 54% 30.13 in 10.0 mi Calm Calm - N/A   Clear
9:56 AM 75.9 °F 51.1 °F 42% 30.14 in 10.0 mi NNE 4.6 mph - N/A   Clear
10:56 AM 80.1 °F 52.0 °F 38% 30.14 in 10.0 mi Calm Calm - N/A   Clear
11:56 AM 82.9 °F 51.1 °F 33% 30.13 in 10.0 mi Calm Calm - N/A   Clear
12:56 PM 84.9 °F 48.9 °F 29% 30.10 in 10.0 mi Calm Calm - N/A   Clear
1:56 PM 87.8 °F 48.2 °F 25% 30.08 in 10.0 mi Calm Calm - N/A   Clear
2:56 PM 87.1 °F 46.9 °F 25% 30.05 in 10.0 mi West 6.9 mph - N/A   Clear
3:56 PM 86.0 °F 48.9 °F 28% 30.04 in 10.0 mi West 6.9 mph - N/A   Clear
4:56 PM 84.9 °F 48.0 °F 28% 30.03 in 10.0 mi WSW 5.8 mph - N/A   Clear
5:56 PM 82.0 °F 50.0 °F 33% 30.03 in 10.0 mi WSW 3.5 mph - N/A   Clear
6:56 PM 73.9 °F 54.0 °F 50% 30.05 in 10.0 mi SSW 4.6 mph - N/A   Clear
7:56 PM 70.0 °F 53.1 °F 55% 30.06 in 10.0 mi SW 4.6 mph - N/A   Clear
8:56 PM 68.0 °F 54.0 °F 61% 30.07 in 10.0 mi WSW 3.5 mph - N/A   Clear
9:56 PM 64.9 °F 53.1 °F 65% 30.08 in 10.0 mi West 3.5 mph - N/A   Clear
10:56 PM 66.0 °F 52.0 °F 60% 30.08 in 10.0 mi West 4.6 mph - N/A   Clear
11:56 PM 63.0 °F 52.0 °F 67% 30.07 in 10.0 mi West 3.5 mph - N/A   Clear